Regional Weather Roundup
Issued by NWS

Home | Current Version | Previous Version | Graphics & Text | Print | Product List | Glossary Off
Versions: 1 2 3 4 5 6 7 8 9 10 11 12 13 14 15 16 17 18 19 20 21 22 23 24 25 26 27 28 29 30 31 32 33 34 35 36 37 38 39 40 41 42 43 44 45 46 47 48 49 50

000
ASUS43 KMKX 020524
RWRWI

WISCONSIN REGIONAL WEATHER ROUNDUP
NATIONAL WEATHER SERVICE MILWAUKEE/SULLIVAN WI
1200 AM CDT TUE JUN 02 2015

NOTE: "FAIR" INDICATES FEW OR NO CLOUDS BELOW 12,000 FEET WITH NO
SIGNIFICANT WEATHER AND/OR OBSTRUCTIONS TO VISIBILITY.

WIZ001-002-006>008-014>016-023>028-020600-
NORTHWEST WISCONSIN

CITY           SKY/WX    TMP DP  RH WIND       PRES   REMARKS
SUPERIOR ARPT  PTCLDY    41  34  75 E3        30.16S
ASHLAND        NOT AVBL
HAYWARD        CLEAR     55  40  56 SE7       30.15S
SIREN          CLEAR     49  43  81 CALM      30.13S
CUMBERLAND     CLEAR     52  43  71 SE6       30.14S
RICE LAKE      CLEAR     55  44  67 SE5       30.16S
CHETEK         CLEAR     52  44  73 SE5       30.15S
LADYSMITH      CLEAR     53  40  63 SE3       30.18S
EAU CLAIRE     CLEAR     53  38  56 SE3       30.15S
MENOMONIE      CLEAR     54  43  66 E5        30.14S
NEW RICHMOND   CLEAR     55  43  63 SE3       30.14R
OSCEOLA        CLEAR     56  44  62 SE5       30.15R
$$

WIZ003>005-009-010-017-018-020600-
NORTH CENTRAL WISCONSIN

CITY           SKY/WX    TMP DP  RH WIND       PRES   REMARKS
MANITOWISH WTR CLEAR     48  38  66 S6        30.18S
ARBOR VITAE    CLEAR     52  37  58 SE7       30.19S
WOODRUFF       CLEAR     52  37  58 SE7       30.19S
RHINELANDER    CLEAR     49  35  58 SE5       30.21F
EAGLE RIVER    CLEAR     47  33  58 S3        30.20F
LAND O LAKES   CLEAR     48  36  63 S3        30.21S
PHILLIPS       CLEAR     47  39  73 E3        30.17S
TOMAHAWK       CLEAR     45  37  74 CALM      30.20S
MEDFORD        CLEAR     49  38  64 SE5       30.18S
MERRILL        CLEAR    N/A N/A N/A CALM      30.21S
$$

WIZ029-030-035-036-043>047-020600-
CENTRAL WISCONSIN

CITY           SKY/WX    TMP DP  RH WIND       PRES   REMARKS
WAUSAU         CLEAR     48  40  73 E5        30.19F
MOSINEE        CLEAR     45  41  87 E5        30.21F
MARSHFIELD     CLEAR     49  35  58 SE5       30.19S
STEVENS POINT  CLEAR     43  39  85 CALM      30.21S
WAUPACA        CLEAR     48  44  84 CALM      30.22S
WAUTOMA        CLEAR     43  43 100 CALM      30.22S
WISC RAPIDS    CLEAR     49  35  58 SE7       30.20F
CAMP DOUGLAS   CLEAR     44  44  99 SE6       30.17F
$$

WIZ011>013-019>022-031-037>040-048>050-020600-
NORTHEAST WISCONSIN

CITY           SKY/WX    TMP DP  RH WIND       PRES   REMARKS
ANTIGO         CLEAR     41  39  94 CALM      30.21F
SHAWANO        CLEAR     46  41  84 CALM      30.22S
OCONTO         CLEAR     39  39 100 CALM      30.22S
STURGEON BAY   CLEAR     45  34  65 E6        30.24S
GREEN BAY      CLEAR     47  44  90 CALM      30.22S
MANITOWOC      CLEAR     44  40  85 CALM      30.22F
APPLETON       CLEAR     52  36  54 E3        30.22S
CLINTONVILLE   CLEAR     45  39  81 CALM      30.21F
OSHKOSH        CLEAR     49  40  71 S3        30.21F
$$

WIZ032>034-041-042-053>061-020600-
SOUTHWEST WISCONSIN

CITY           SKY/WX    TMP DP  RH WIND       PRES   REMARKS
LA CROSSE      CLEAR     55  41  59 E5        30.15F
SPARTA         CLEAR     43  39  86 CALM      30.18S
VIROQUA        CLEAR     52  36  53 SE8       30.17F
BOSCOBEL       CLEAR     46  42  86 CALM      30.18F
PRAIRIE DU CHI PTCLDY    54  37  52 E8        30.15F
PLATTEVILLE    CLEAR     52  38  60 E9        30.18F
$$

WIZ056-057-062-063-064-067-068-020600-
SOUTH CENTRAL WISCONSIN

CITY           SKY/WX    TMP DP  RH WIND       PRES   REMARKS
REEDSBURG      CLEAR     47  39  74 E3        30.19S
BARABOO/DELLS  CLEAR     46  35  65 CALM      30.20S
LONE ROCK      CLEAR     50  39  66 CALM      30.19F
MINERAL POINT  CLEAR     52  32  46 E6        30.19S
MADISON        CLEAR     45  32  60 CALM      30.20F
MIDDLETON      CLEAR     47  42  82 CALM      30.20F
WATERTOWN      CLEAR     44  39  84 CALM      30.21S
MONROE         CLEAR     50  37  62 E7        30.19F
JANESVILLE     CLEAR     48  36  61 E3        30.20F
$$

WIZ051-052-058>065-066-070>072-020600-
SOUTHEAST WISCONSIN

CITY           SKY/WX    TMP DP  RH WIND       PRES   REMARKS
MILWAUKEE      PTCLDY    47  33  58 CALM      30.22F
WAUKESHA       FAIR      41  34  75 CALM      30.23S
MILWAUKEE/TIMM CLEAR     45  32  61 CALM      30.23S
RACINE         CLEAR     45  36  70 CALM      30.23F
BURLINGTON     CLEAR     39  35  87 CALM      30.21F
KENOSHA        CLEAR     45  36  70 N5        30.21F
FOND DU LAC    CLEAR     47  38  71 CALM      30.22S
SHEBOYGAN      CLEAR     42  39  89 CALM      30.22F
WEST BEND      CLEAR     43  37  81 CALM      30.22F
JUNEAU         CLEAR     47  38  71 E6        30.22F
$$

LSZ147-162-020600-
LAKE SUPERIOR

STATION/POSITION TIME  TEMP    WIND        PRES    WAVE
                       AIR SEA DIR/SP/G            HT/PER
                 (UTC) (F)     (DEG/KT/KT) (MB)    (FT/S)
W MID LAKE BUOY  0450   41 37  120/  8/ 10   N/A     1/ 3
DEVILS ISLAND    0500   41      20/  6/  6   N/A
PORT WING        0400   42      50/  9/ 11   N/A
SAXON HARBOR     0400   41        CALM       N/A
$$

LMZ867-665-643>646-020600-
LAKE MICHIGAN

STATION/POSITION TIME  TEMP    WIND        PRES    WAVE
                       AIR SEA DIR/SP/G            HT/PER
                 (UTC) (F)     (DEG/KT/KT) (MB)    (FT/S)
CHAMBERS ISLAND  0400   42        CALM       N/A
N MID LAKE BUOY  0450   41 37   70/  6/  6   N/A     0
NORTHPORT PIER   0400   48     310/  1/  2   N/A
SISTER BAY       0418   44        CALM       N/A
ALGOMA LAKESHORE 0424             CALM       N/A
KEWAUNEE LAKESHO 0400   46     310/  2/  5   N/A
SHEBOYGAN LAKESH 0500   51     340/  5/  6   N/A
PORT WASHINGTON  0440   49     320/  4/  6   N/A
ATWATER BUOY     0400   48     340/  6/  8   N/A
MILWAUKEE LAKESH 0400   49      10/  5/  6   N/A
S MID LAKE BUOY  0450   41 38   20/  6/  6   N/A     1/ 4
KENOSHA   LAKESH 0500   49      10/  8/  9   N/A
$$

TC  - TEMPERATURE IN CELSIUS
VSB - VISIBILITY IN STATUTE MILES
WCI - WIND CHILL INDEX
HX  - HEAT INDEX



USA.gov is the U.S. government's official web portal to all federal, state and local government web resources and services.